EW6790 Weather Reports


time (UTC)temp
C
wind
direction
speed
KPH
gust
KPH
rain 1hr
cm
rain 24hr
cm
rain mn
cm
humidity
%
barometer
mb
20260831013035 23 156 11.3 20.9 0.00 0.00 0.00 86 1006.4
20260831011531 24 163 12.9 25.7 0.00 0.00 0.00 85 1006.3
20260831010011 24 184 12.9 25.7 0.00 0.00 0.00 85 1006.1
20260831004508 25 168 11.3 24.1 0.00 0.00 0.00 83 1006.1
20260831003050 25 142 14.5 25.7 0.00 0.00 0.00 81 1006.1
20260831001546 26 187 12.9 24.1 0.00 0.00 0.00 83 1006.1
20260831000027 26 184 11.3 25.7 0.00 0.00 0.00 83 1006.0
20260830234537 26 162 17.7 29.0 0.00 0.00 0.00 81 1005.9
20260830233003 27 153 12.9 24.1 0.00 0.00 0.00 80 1005.7
20260830231601 27 161 14.5 25.7 0.00 0.00 0.00 78 1005.7
20260830230042 27 182 16.1 24.1 0.00 0.00 0.00 78 1005.7
20260830224548 28 164 14.5 22.5 0.00 0.00 0.00 77 1005.5
20260830223024 28 150 12.9 22.5 0.00 0.00 0.00 78 1005.5
20260830221529 28 176 12.9 22.5 0.00 0.00 0.00 77 1005.5
20260830220005 28 185 16.1 24.1 0.00 0.00 0.00 74 1005.2
20260830214505 28 187 17.7 25.7 0.00 0.00 0.00 74 1005.2
20260830213045 28 190 14.5 27.4 0.00 0.00 0.00 77 1005.4
20260830211543 28 131 14.5 27.4 0.00 0.00 0.00 76 1005.6
20260830210027 28 175 14.5 22.5 0.00 0.00 0.00 76 1005.7
20260830204536 27 176 16.1 27.4 0.00 0.00 0.00 75 1005.8
20260830203009 28 229 16.1 27.4 0.00 0.00 0.00 71 1005.8
20260830201508 28 233 20.9 32.2 0.00 0.00 0.00 70 1005.8
20260830200010 28 146 11.3 29.0 0.00 0.00 0.00 74 1005.8
20260830194505 28 170 14.5 27.4 0.00 0.00 0.00 75 1005.7
20260830193002 29 192 12.9 27.4 0.00 0.00 0.00 73 1005.8
20260830191502 29 169 12.9 24.1 0.00 0.00 0.00 71 1005.8
20260830190100 29 184 12.9 22.5 0.00 0.00 0.00 71 1005.9
20260830184559 28 191 17.7 25.7 0.00 0.00 0.00 71 1005.7
20260830183040 28 179 17.7 25.7 0.00 0.00 0.00 72 1005.9
20260830181538 28 219 14.5 27.4 0.00 0.00 0.00 71 1006.0
20260830180023 29 144 14.5 25.7 0.00 0.00 0.00 74 1005.9
20260830174521 28 188 8.0 17.7 0.00 0.00 0.00 76 1006.0
20260830173017 28 169 9.7 17.7 0.00 0.00 0.00 70 1005.9
20260830171516 29 169 9.7 24.1 0.00 0.00 0.00 73 1006.0
20260830170014 28 207 6.4 9.7 0.00 0.00 0.00 72 1006.2
20260830164533 27 219 1.6 14.5 0.00 0.00 0.00 75 1006.4
20260830163011 27 221 11.3 20.9 0.00 0.00 0.00 76 1006.9
20260830161511 27 185 6.4 27.4 0.00 0.00 0.00 79 1007.0
20260830160051 26 205 16.1 25.7 0.00 0.00 0.00 78 1007.1
20260830154554 26 203 16.1 24.1 0.00 0.00 0.00 79 1007.1
20260830153032 26 195 11.3 27.4 0.00 0.00 0.00 80 1006.5
20260830151534 25 198 14.5 24.1 0.00 0.00 0.00 81 1006.3
20260830150021 25 207 14.5 22.5 0.00 0.00 0.00 81 1006.1
20260830144514 25 201 11.3 17.7 0.00 0.00 0.00 83 1006.1
20260830143117 24 205 8.0 17.7 0.00 0.00 0.00 84 1006.0
20260830141555 24 212 11.3 17.7 0.00 0.03 0.00 83 1006.0
20260830140101 24 199 12.9 20.9 0.00 0.03 0.00 84 1005.9
20260830134541 23 174 8.0 16.1 0.00 0.03 0.00 87 1006.1
20260830133040 23 165 6.4 14.5 0.00 0.03 0.00 87 1006.3
20260830131543 22 197 11.3 16.1 0.00 0.05 0.00 87 1006.5
20260830130040 -17 0.0 0.0 0.00 0.05 0.00 1006.4
20260830124538 -17 0.0 0.0 0.00 0.05 0.00 1006.4
20260830123041 -17 0.0 0.0 0.00 0.05 0.00 1006.3
20260830121532 -17 0.0 0.0 0.00 0.05 0.00 1006.2
20260830120028 -17 0.0 0.0 0.00 0.05 0.00 1006.1
20260830114509 -17 0.0 0.0 0.00 0.05 0.00 1006.1
20260830113002 -17 0.0 0.0 0.00 0.05 0.00 1006.0
20260830111541 -17 0.0 0.0 0.00 0.05 0.00 1006.2
20260830110037 -17 0.0 0.0 0.00 0.05 0.00 1006.2
20260830104515 -17 0.0 0.0 0.00 0.05 0.00 1006.2
20260830103012 -17 0.0 0.0 0.00 0.05 0.00 1006.4
20260830101550 -17 0.0 0.0 0.00 0.30 0.00 1006.4
20260830100108 20 141 1.6 4.8 0.00 0.30 0.00 68 1006.7
20260830094532 20 121 1.6 6.4 0.00 0.30 0.00 67 1006.8
20260830093032 20 143 1.6 4.8 0.00 0.30 0.00 69 1006.8
20260830091534 20 126 1.6 4.8 0.00 0.58 0.00 68 1006.8
20260830090031 20 146 3.2 9.7 0.00 0.58 0.00 70 1006.5
20260830084629 20 120 3.2 9.7 0.00 0.58 0.00 68 1006.5
20260830083029 20 146 4.8 9.7 0.00 0.58 0.00 68 1006.3
20260830081528 21 136 4.8 9.7 0.00 0.69 0.00 70 1006.4
20260830080027 21 153 3.2 8.0 0.00 0.69 0.00 71 1006.6
20260830074514 21 120 1.6 9.7 0.00 0.69 0.00 74 1006.6
20260830073019 21 157 4.8 9.7 0.00 0.69 0.00 71 1006.7
20260830071517 21 172 4.8 11.3 0.00 0.81 0.00 71 1006.8
20260830070013 21 138 4.8 12.9 0.00 0.81 0.00 70 1006.9
20260830064513 21 161 6.4 11.3 0.00 0.81 0.00 70 1006.9
20260830063012 21 182 6.4 16.1 0.00 0.81 0.00 70 1006.8
20260830061511 21 148 8.0 16.1 0.00 0.81 0.00 70 1006.7
20260830060008 21 137 8.0 12.9 0.00 0.81 0.00 69 1007.0
20260830054550 20 136 4.8 9.7 0.00 0.81 0.00 70 1007.2
20260830053055 21 143 1.6 6.4 0.00 0.81 0.00 73 1007.6
20260830051536 21 154 3.2 9.7 0.00 0.81 0.00 74 1007.6
20260830050032 21 181 4.8 8.0 0.00 0.81 0.00 73 1007.6
20260830044512 20 129 1.6 9.7 0.00 0.81 0.00 75 1007.4
20260830043012 21 122 4.8 12.9 0.00 0.81 0.00 78 1007.3
20260830041512 21 186 4.8 9.7 0.00 0.81 0.00 79 1007.4
20260830040010 21 141 6.4 12.9 0.00 0.81 0.00 80 1007.5
20260830034508 21 126 6.4 14.5 0.00 0.81 0.00 82 1007.5
20260830033007 21 124 4.8 14.5 0.00 0.81 0.00 83 1007.7
20260830031505 21 151 9.7 19.3 0.00 0.81 0.00 83 1007.6
20260830030004 21 133 6.4 14.5 0.00 0.81 0.00 84 1007.8
20260830024544 21 128 6.4 11.3 0.00 0.81 0.00 84 1007.9
20260830023100 21 146 6.4 11.3 0.00 0.81 0.00 85 1007.7
20260830021525 21 136 6.4 16.1 0.00 0.81 0.00 86 1007.7
20260830020027 22 123 4.8 16.1 0.00 0.81 0.00 86 1007.5
20260830014502 22 119 6.4 19.3 0.00 0.81 0.00 86 1007.2